Weather History for White Mountain, AK

Change the Weather History Date:

Thursday, January 10, 2013

  Actual Average (PAKK) Record (PAKK)
Temperature  
Mean Temperature 23 °F -  
Max Temperature 26 °F 7 °F 39 °F (2011)
Min Temperature 21 °F 0 °F -29 °F (2008)
Degree Days  
Heating Degree Days 42    
Moisture  
Dew Point 22 °F    
Average Humidity 96    
Maximum Humidity 100    
Minimum Humidity 88    
Precipitation  
Precipitation 0.00 in - - ()
Sea Level Pressure  
Sea Level Pressure 29.67 in    
Wind  
Wind Speed 10 mph (SE)    
Max Wind Speed 18 mph    
Max Gust Speed 22 mph    
Visibility 4 miles    
Events Fog , Snow    
Averages and records for this station are not official NWS values.
T = Trace of Precipitation, MM = Missing Value Source: NWS Daily Summary

Daily Weather History Graph

Daily Weather History Graph

Search for Another Location

Airport:

Trip Planner

Search our weather history database for the weather conditions in past years. The results will help you decide how hot, cold, wet, or windy it might be!

Date:

Astronomy

Jan. 10, 2013 Rise Set
Actual Time 11:37 AM AKST 4:25 PM AKST
Civil Twilight 10:24 AM AKST 5:39 PM AKST
Nautical Twilight 9:16 AM AKST 6:46 PM AKST
Astronomical Twilight 8:17 AM AKST 7:46 PM AKST
Moon 10:21 AM AKST (1/10) 3:58 PM AKST (1/10)
Length of Visible Light 7h 14m
Length of Day
4h 47m
Waning Crescent, 1% of the Moon is Illuminated
Jan 10
Waning Crescent
Jan 11
New
Jan 18
First Quarter
Jan 26
Full
Feb 3
Last Quarter

Hourly Weather History & Observations

Time (AKST) Temp. Windchill Dew Point Humidity Pressure Visibility Wind Dir Wind Speed Gust Speed Precip Events Conditions
12:03 AM 21.2 °F 13.6 °F 19.4 °F 93% 29.57 in 0.8 mi East 5.8 mph - 0.00 in Snow Light Snow
12:21 AM 21.2 °F 10.9 °F 19.4 °F 93% 29.57 in 1.2 mi East 9.2 mph - 0.00 in Snow Light Snow
12:42 AM 21.2 °F - 19.4 °F 93% 29.57 in 1.0 mi Calm Calm - 0.00 in Snow Light Snow
12:58 AM 21.9 °F 11.0 °F 21.0 °F 96% 29.61 in 1.5 mi East 10.4 mph - 0.00 in Snow Light Snow
1:15 AM 21.2 °F 8.3 °F 21.2 °F 100% 29.57 in 2.0 mi East 13.8 mph - 0.00 in Snow Light Snow
1:39 AM 21.2 °F 8.9 °F 19.4 °F 93% 29.57 in 1.5 mi East 12.7 mph - 0.00 in Snow Light Snow
1:51 AM 21.2 °F 9.5 °F 19.4 °F 93% 29.57 in 1.2 mi East 11.5 mph - 0.00 in Snow Light Snow
1:58 AM 21.9 °F 9.8 °F 19.9 °F 92% 29.60 in 1.0 mi East 12.7 mph - 0.00 in Snow Light Snow
2:13 AM 21.2 °F 10.1 °F 19.4 °F 93% 29.57 in 1.2 mi East 10.4 mph - 0.00 in Snow Light Snow
2:48 AM 21.2 °F 8.3 °F 19.4 °F 93% 29.57 in 1.8 mi ESE 13.8 mph - 0.00 in Snow Light Snow
3:15 AM 21.2 °F 7.3 °F 19.4 °F 93% 29.57 in 3.0 mi ESE 16.1 mph 21.9 mph 0.00 in Snow Light Snow
3:20 AM 21.2 °F 8.3 °F 19.4 °F 93% 29.57 in 2.5 mi ESE 13.8 mph - 0.00 in Snow Light Snow
3:58 AM 21.0 °F 8.6 °F 19.9 °F 96% 29.61 in 2.0 mi ESE 12.7 mph - 0.00 in Snow Light Snow
4:10 AM 21.2 °F 8.3 °F 19.4 °F 93% 29.57 in 1.8 mi ESE 13.8 mph - 0.00 in Snow Light Snow
4:22 AM 21.2 °F 8.9 °F 19.4 °F 93% 29.57 in 2.0 mi ESE 12.7 mph - 0.00 in Snow Light Snow
4:45 AM 21.2 °F 8.9 °F 19.4 °F 93% 29.57 in 4.0 mi ESE 12.7 mph - 0.00 in Snow Light Snow
4:58 AM 21.0 °F 8.1 °F 19.9 °F 96% 29.61 in 9.0 mi ESE 13.8 mph - 0.00 in Snow Light Snow
5:58 AM 21.0 °F 9.9 °F 19.0 °F 92% 29.62 in 4.0 mi ESE 10.4 mph - 0.00 in Snow Light Snow
6:56 AM 21.2 °F 8.9 °F 19.4 °F 93% 29.60 in 9.0 mi ESE 12.7 mph - 0.00 in Snow Light Snow
7:33 AM 21.2 °F 9.5 °F 19.4 °F 93% 29.61 in 10.0 mi ESE 11.5 mph - 0.00 in Snow Light Snow
7:40 AM 21.2 °F 8.9 °F 19.4 °F 93% 29.61 in 8.0 mi SE 12.7 mph - 0.00 in Snow Light Snow
7:58 AM 21.9 °F 9.2 °F 21.0 °F 96% 29.65 in 4.0 mi SE 13.8 mph - 0.00 in Snow Light Snow
8:05 AM 21.2 °F 8.3 °F 21.2 °F 100% 29.62 in 4.0 mi SE 13.8 mph - 0.00 in Snow Light Snow
8:48 AM 23.0 °F 11.7 °F 21.2 °F 93% 29.63 in 2.0 mi SSE 11.5 mph - 0.00 in Snow Light Snow
8:52 AM 23.0 °F 13.1 °F 23.0 °F 100% 29.64 in 1.5 mi SSE 9.2 mph - 0.00 in Snow Light Snow
8:58 AM 23.0 °F 11.7 °F 23.0 °F 100% 29.67 in 1.2 mi SSE 11.5 mph - 0.00 in   Overcast
9:08 AM 24.8 °F 13.4 °F 24.8 °F 100% 29.64 in 1.0 mi South 12.7 mph - 0.00 in   Overcast
9:12 AM 24.8 °F 11.9 °F 24.8 °F 100% 29.64 in 0.8 mi South 16.1 mph 20.7 mph 0.00 in   Overcast
9:19 AM 24.8 °F 11.1 °F 24.8 °F 100% 29.65 in 1.2 mi SSW 18.4 mph 21.9 mph 0.00 in Snow Light Snow
9:33 AM 24.8 °F 13.4 °F 24.8 °F 100% 29.66 in 1.0 mi South 12.7 mph 19.6 mph 0.00 in Snow Light Snow
9:58 AM 24.1 °F 14.4 °F 23.0 °F 96% 29.72 in 0.8 mi SSW 9.2 mph 17.3 mph 0.00 in Snow Light Snow
10:08 AM 23.0 °F 11.1 °F 23.0 °F 100% 29.69 in 1.2 mi South 12.7 mph 18.4 mph 0.00 in Snow Light Snow
10:17 AM 23.0 °F 11.7 °F 23.0 °F 100% 29.69 in 2.0 mi SSW 11.5 mph 21.9 mph 0.00 in Snow Light Snow
10:21 AM 23.0 °F 11.7 °F 23.0 °F 100% 29.70 in 1.2 mi SSW 11.5 mph - 0.00 in Snow Light Snow
10:27 AM 23.0 °F 13.9 °F 23.0 °F 100% 29.70 in 1.0 mi SSW 8.1 mph 17.3 mph 0.00 in Snow Light Snow
10:34 AM 23.0 °F 13.9 °F 21.2 °F 93% 29.70 in 0.8 mi South 8.1 mph - 0.00 in Snow Light Snow
10:45 AM 21.2 °F 10.1 °F 21.2 °F 100% 29.71 in 1.2 mi South 10.4 mph - 0.00 in Snow Light Snow
10:51 AM 21.2 °F 9.5 °F 21.2 °F 100% 29.71 in 3.0 mi South 11.5 mph - 0.00 in Snow Light Snow
11:07 AM 21.2 °F 9.5 °F 21.2 °F 100% 29.72 in 4.0 mi SSW 11.5 mph 18.4 mph 0.00 in   Overcast
11:30 AM 21.2 °F 7.3 °F 21.2 °F 100% 29.73 in 7.0 mi SSW 16.1 mph - 0.00 in   Overcast
11:52 AM 21.2 °F 10.1 °F 21.2 °F 100% 29.74 in 7.0 mi South 10.4 mph - 0.00 in   Overcast
11:58 AM 21.9 °F 11.7 °F 21.0 °F 96% 29.78 in 7.0 mi SSW 9.2 mph - 0.00 in   Overcast
12:58 PM 23.0 °F 12.4 °F 21.9 °F 96% 29.80 in 9.0 mi South 10.4 mph - N/A   Overcast
1:08 PM 23.0 °F 10.6 °F 23.0 °F 100% 29.76 in 6.0 mi South 13.8 mph 19.6 mph 0.00 in Snow Light Snow
1:17 PM 23.0 °F 11.7 °F 23.0 °F 100% 29.76 in 1.8 mi South 11.5 mph 19.6 mph 0.00 in Snow Light Snow
1:21 PM 23.0 °F 10.1 °F 23.0 °F 100% 29.76 in 0.8 mi South 15.0 mph 18.4 mph 0.00 in Snow Light Snow
1:25 PM 23.0 °F 11.7 °F 23.0 °F 100% 29.76 in 0.5 mi South 11.5 mph - 0.00 in Fog , Snow Light Snow
1:30 PM 23.0 °F 11.1 °F 23.0 °F 100% 29.76 in 0.2 mi South 12.7 mph - 0.00 in Fog , Snow Light Snow
1:35 PM 23.0 °F 11.7 °F 23.0 °F 100% 29.77 in 0.5 mi South 11.5 mph - 0.00 in Fog , Snow Light Snow
1:41 PM 23.0 °F 13.1 °F 23.0 °F 100% 29.77 in 1.0 mi South 9.2 mph - 0.00 in Snow Light Snow
1:45 PM 23.0 °F 12.4 °F 23.0 °F 100% 29.77 in 2.5 mi South 10.4 mph - 0.00 in Snow Light Snow
1:49 PM 23.0 °F 13.9 °F 23.0 °F 100% 29.77 in 5.0 mi South 8.1 mph - 0.00 in Snow Light Snow
1:58 PM 23.0 °F 12.4 °F 23.0 °F 100% 29.81 in 6.0 mi South 10.4 mph - 0.00 in Snow Light Snow
2:12 PM 23.0 °F 15.8 °F 21.2 °F 93% 29.77 in 7.0 mi SSE 5.8 mph - 0.00 in   Overcast
2:53 PM 21.2 °F 10.9 °F 21.2 °F 100% 29.77 in 7.0 mi SSE 9.2 mph - 0.00 in   Overcast
2:58 PM 21.9 °F 12.5 °F 21.9 °F 100% 29.81 in 6.0 mi SE 8.1 mph - 0.00 in   Overcast
3:03 PM 21.2 °F 10.1 °F 21.2 °F 100% 29.78 in 6.0 mi SSE 10.4 mph - N/A   Overcast
3:51 PM 23.0 °F 15.8 °F 21.2 °F 93% 29.78 in 3.0 mi SE 5.8 mph - 0.00 in Snow Light Snow
3:57 PM 23.0 °F 14.7 °F 21.9 °F 96% 29.82 in 2.5 mi ESE 6.9 mph - 0.00 in Snow Light Snow
4:27 PM 21.2 °F 10.9 °F 21.2 °F 100% 29.77 in 1.5 mi ESE 9.2 mph - 0.00 in Snow Light Snow
4:40 PM 23.0 °F 11.1 °F 21.2 °F 93% 29.76 in 2.0 mi ESE 12.7 mph - 0.00 in   Overcast
4:46 PM 23.0 °F 12.4 °F 21.2 °F 93% 29.76 in 5.0 mi ESE 10.4 mph - 0.00 in   Overcast
4:58 PM 23.0 °F 12.4 °F 21.9 °F 96% 29.79 in 7.0 mi ESE 10.4 mph - 0.00 in   Overcast
5:58 PM 23.0 °F 13.9 °F 23.0 °F 100% 29.75 in 10.0 mi ENE 8.1 mph - N/A   Overcast
6:24 PM 23.0 °F 15.8 °F 21.2 °F 93% 29.71 in 10.0 mi ENE 5.8 mph - N/A   Overcast
6:42 PM 23.0 °F 15.8 °F 21.2 °F 93% 29.69 in 10.0 mi NE 5.8 mph - N/A   Scattered Clouds
6:58 PM 21.9 °F 14.5 °F 21.9 °F 100% 29.72 in 10.0 mi Variable 5.8 mph - N/A   Partly Cloudy
7:58 PM 21.9 °F 11.7 °F 21.0 °F 96% 29.69 in 10.0 mi ENE 9.2 mph - N/A   Mostly Cloudy
8:58 PM 24.1 °F 18.2 °F 23.0 °F 96% 29.66 in 10.0 mi NNE 4.6 mph - N/A   Overcast
9:58 PM 24.1 °F 15.2 °F 23.0 °F 96% 29.65 in 9.0 mi ESE 8.1 mph - 0.00 in Snow Light Snow
10:20 PM 24.8 °F 14.0 °F 23.0 °F 93% 29.60 in 9.0 mi East 11.5 mph - 0.00 in Snow Light Snow
10:58 PM 25.0 °F 14.8 °F 23.0 °F 92% 29.61 in 8.0 mi East 10.4 mph - 0.00 in Snow Light Snow
11:14 PM 24.8 °F 16.9 °F 23.0 °F 93% 29.56 in 2.0 mi NE 6.9 mph - 0.00 in Snow Light Snow
11:18 PM 24.8 °F 16.9 °F 23.0 °F 93% 29.57 in 1.8 mi ENE 6.9 mph - 0.00 in Snow Light Snow
11:25 PM 24.8 °F 17.9 °F 23.0 °F 93% 29.57 in 2.5 mi ENE 5.8 mph - 0.00 in Snow Light Snow
11:29 PM 24.8 °F 17.9 °F 23.0 °F 93% 29.57 in 4.0 mi East 5.8 mph - 0.00 in Snow Light Snow
11:37 PM 24.8 °F 17.9 °F 23.0 °F 93% 29.57 in 9.0 mi Variable 5.8 mph - 0.00 in Snow Light Snow
11:58 PM 26.1 °F 15.0 °F 23.0 °F 88% 29.59 in 10.0 mi ESE 12.7 mph 20.7 mph 0.00 in   Overcast